TPA501 SBVT-SKBO

Flight info

Callsign TPA501
Flight time N/A
Altitude 36000
Route OPLOX UZ40 VARIT/N0475F380 UZ40 UGUGA UZ33 TFE/N0469F400 UZ33 OBLIS DCT DADKA UM549 ANPIX DCT ABL ABL3M
Aircraft A343/H-SDE2E3FGHIJ4J5M1RWXY/LB1D1

Departure

Time 2026-05-04 15:58
Airport Eurico de Aguiar Salles International Airport (SBVT)

Arrival

Time N/A
Airport El Dorado International Airport (SKBO)
Time Latitude Longitude Altitude Speed Heading
2026-05-04 15:52 -20.25722 -40.28863 29 ft 0 kts 301°
2026-05-04 15:52 -20.25723 -40.28862 29 ft 2 kts 301°
2026-05-04 15:53 -20.25736 -40.28842 29 ft 4 kts 327°
2026-05-04 15:53 -20.25757 -40.28839 29 ft 4 kts 30°
2026-05-04 15:53 -20.25775 -40.28852 24 ft 1 kts 32°
2026-05-04 15:53 -20.25778 -40.28854 28 ft 0 kts 32°
2026-05-04 15:54 -20.25776 -40.28852 28 ft 2 kts 31°
2026-05-04 15:54 -20.25737 -40.28827 26 ft 9 kts 31°
2026-05-04 15:55 -20.25714 -40.28779 25 ft 8 kts 98°
2026-05-04 15:55 -20.25743 -40.28700 20 ft 13 kts 110°
2026-05-04 15:55 -20.25720 -40.28634 21 ft 10 kts 36°
2026-05-04 15:55 -20.25564 -40.28528 21 ft 42 kts 31°
2026-05-04 15:56 -20.25313 -40.28369 29 ft 42 kts 31°
2026-05-04 15:56 -20.25073 -40.28210 27 ft 40 kts 32°
2026-05-04 15:56 -20.24947 -40.28119 29 ft 0 kts 60°
2026-05-04 15:56 -20.24949 -40.28113 29 ft 1 kts 95°
2026-05-04 15:57 -20.24967 -40.28094 29 ft 9 kts 145°
2026-05-04 15:57 -20.25103 -40.28067 30 ft 17 kts 173°
2026-05-04 15:57 -20.25263 -40.28044 36 ft 52 kts 172°
2026-05-04 15:57 -20.25858 -40.27956 45 ft 118 kts 172°
2026-05-04 15:58 -20.26839 -40.27804 224 ft 156 kts 174°
2026-05-04 15:58 -20.27911 -40.27600 990 ft 161 kts 172°
2026-05-04 15:58 -20.29080 -40.27425 1424 ft 180 kts 173°
2026-05-04 15:58 -20.30391 -40.27253 1740 ft 199 kts 173°
2026-05-04 15:59 -20.31861 -40.27313 1932 ft 229 kts 195°
2026-05-04 15:59 -20.33190 -40.28323 2479 ft 248 kts 233°
2026-05-04 15:59 -20.33695 -40.30103 3242 ft 262 kts 268°
2026-05-04 15:59 -20.33238 -40.32015 3973 ft 271 kts 289°
2026-05-04 16:00 -20.32484 -40.33856 4895 ft 269 kts 292°
2026-05-04 16:00 -20.31749 -40.35666 5762 ft 270 kts 291°
2026-05-04 16:00 -20.31023 -40.37536 6512 ft 275 kts 290°
2026-05-04 16:00 -20.30306 -40.39447 7261 ft 279 kts 290°
2026-05-04 16:01 -20.29596 -40.41372 8082 ft 279 kts 290°
2026-05-04 16:01 -20.29129 -40.42647 8622 ft 279 kts 290°
2026-05-04 16:01 -20.28425 -40.44582 9391 ft 281 kts 291°
2026-05-04 16:01 -20.27720 -40.46527 10180 ft 280 kts 292°
2026-05-04 16:02 -20.27011 -40.48485 10740 ft 289 kts 291°
2026-05-04 16:02 -20.26011 -40.51247 11073 ft 313 kts 291°
2026-05-04 16:02 -20.24494 -40.54936 11515 ft 339 kts 302°
2026-05-04 16:03 -20.23032 -40.56991 11754 ft 354 kts 309°
2026-05-04 16:03 -20.21410 -40.59026 12042 ft 366 kts 309°
2026-05-04 16:03 -20.19730 -40.61113 12442 ft 373 kts 309°
2026-05-04 16:03 -20.18027 -40.63237 12896 ft 379 kts 309°
2026-05-04 16:04 -20.16327 -40.65368 13392 ft 383 kts 308°
2026-05-04 16:04 -20.12826 -40.69760 14223 ft 394 kts 309°
2026-05-04 16:04 -20.11039 -40.72006 14671 ft 397 kts 309°
2026-05-04 16:05 -20.09250 -40.74255 15137 ft 400 kts 309°
2026-05-04 16:05 -20.07466 -40.76496 15637 ft 401 kts 309°
2026-05-04 16:05 -20.03840 -40.81051 16636 ft 406 kts 309°
2026-05-04 16:06 -20.02013 -40.83345 17132 ft 408 kts 309°
2026-05-04 16:06 -19.96456 -40.90314 18637 ft 415 kts 309°
2026-05-04 16:07 -19.94589 -40.92654 19103 ft 417 kts 309°
2026-05-04 16:07 -19.88934 -40.99736 20464 ft 421 kts 309°
2026-05-04 16:08 -19.87051 -41.02126 20936 ft 422 kts 306°
2026-05-04 16:08 -19.82398 -41.10077 22275 ft 424 kts 297°
2026-05-04 16:09 -19.79592 -41.15562 23138 ft 427 kts 296°
2026-05-04 16:09 -19.76740 -41.21107 23905 ft 430 kts 297°
2026-05-04 16:10 -19.73830 -41.26685 24624 ft 433 kts 297°
2026-05-04 16:11 -19.69397 -41.35115 25642 ft 438 kts 297°
2026-05-04 16:11 -19.67908 -41.37941 26002 ft 439 kts 297°
2026-05-04 16:12 -19.63420 -41.46469 26998 ft 444 kts 297°
2026-05-04 16:12 -19.58881 -41.55080 27933 ft 448 kts 297°
2026-05-04 16:13 -19.55826 -41.60866 28522 ft 451 kts 297°
2026-05-04 16:13 -19.52749 -41.66688 29104 ft 454 kts 297°
2026-05-04 16:14 -19.49668 -41.72512 29951 ft 449 kts 296°
2026-05-04 16:14 -19.46626 -41.78256 30693 ft 446 kts 296°
2026-05-04 16:15 -19.42097 -41.86806 31546 ft 444 kts 296°
2026-05-04 16:16 -19.39088 -41.92499 32168 ft 441 kts 296°
2026-05-04 16:16 -19.34654 -42.01006 33053 ft 438 kts 296°
2026-05-04 16:17 -19.31677 -42.06614 33590 ft 437 kts 297°
2026-05-04 16:18 -19.26991 -42.14869 34363 ft 435 kts 297°
2026-05-04 16:18 -19.25433 -42.17609 34599 ft 434 kts 297°
2026-05-04 16:19 -19.20792 -42.25810 35166 ft 433 kts 297°
2026-05-04 16:19 -19.17717 -42.31264 35590 ft 430 kts 296°
2026-05-04 16:20 -19.13129 -42.39400 36123 ft 429 kts 296°
2026-05-04 16:20 -19.10055 -42.44849 36175 ft 432 kts 296°
2026-05-04 16:22 -19.02835 -42.58694 36176 ft 430 kts 294°
2026-05-04 16:23 -18.94167 -42.75283 36176 ft 430 kts 294°
2026-05-04 16:25 -18.85180 -42.91771 36169 ft 434 kts 296°
2026-05-04 16:26 -18.74594 -43.11086 36161 ft 435 kts 295°
2026-05-04 16:28 -18.67171 -43.24943 36163 ft 435 kts 294°
2026-05-04 16:29 -18.56871 -43.44435 36163 ft 435 kts 294°
2026-05-04 16:31 -18.49493 -43.58366 36168 ft 435 kts 294°
2026-05-04 16:32 -18.40840 -43.75210 36158 ft 436 kts 294°
2026-05-04 16:33 -18.35047 -43.86403 36146 ft 437 kts 294°
2026-05-04 16:34 -18.30684 -43.94844 36142 ft 438 kts 294°
2026-05-04 16:35 -18.21918 -44.11754 36131 ft 439 kts 294°
2026-05-04 16:36 -18.17529 -44.20206 36125 ft 439 kts 294°
2026-05-04 16:37 -18.13131 -44.28664 36118 ft 440 kts 294°
2026-05-04 16:38 -18.07255 -44.39946 36106 ft 440 kts 294°
2026-05-04 16:39 -17.99785 -44.53999 36115 ft 441 kts 295°
2026-05-04 16:40 -17.93730 -44.65210 36116 ft 441 kts 294°
2026-05-04 16:41 -17.86217 -44.79216 36105 ft 441 kts 294°
2026-05-04 16:43 -17.78948 -44.93396 36096 ft 441 kts 294°
2026-05-04 16:43 -17.74552 -45.01913 36100 ft 443 kts 294°
2026-05-04 16:45 -17.65704 -45.18950 36099 ft 444 kts 295°
2026-05-04 16:46 -17.57459 -45.32650 36103 ft 446 kts 297°
2026-05-04 16:47 -17.50862 -45.43680 36096 ft 447 kts 297°
2026-05-04 16:48 -17.44279 -45.54722 36095 ft 447 kts 297°
2026-05-04 16:49 -17.38233 -45.64843 36086 ft 448 kts 297°
2026-05-04 16:50 -17.31612 -45.75905 36079 ft 448 kts 297°
2026-05-04 16:51 -17.26646 -45.84185 36063 ft 448 kts 297°
2026-05-04 16:52 -17.19993 -45.95250 36075 ft 450 kts 297°
2026-05-04 16:53 -17.15013 -46.03521 36075 ft 450 kts 297°
2026-05-04 16:54 -17.08352 -46.14571 36067 ft 450 kts 297°
2026-05-04 16:55 -16.98312 -46.31194 36073 ft 451 kts 297°
2026-05-04 16:56 -16.89932 -46.45038 36067 ft 452 kts 297°
2026-05-04 16:57 -16.84882 -46.53368 36073 ft 453 kts 297°
2026-05-04 16:58 -16.77970 -46.64374 36073 ft 454 kts 299°
2026-05-04 17:00 -16.67257 -46.80704 36074 ft 456 kts 299°
2026-05-04 17:01 -16.58354 -46.94366 36070 ft 456 kts 299°
2026-05-04 17:02 -16.51247 -47.05251 36070 ft 456 kts 299°
2026-05-04 17:03 -16.45892 -47.13442 36077 ft 456 kts 299°
2026-05-04 17:03 -16.40538 -47.21623 36076 ft 456 kts 299°
2026-05-04 17:04 -16.31944 -47.31546 36071 ft 465 kts 309°
2026-05-04 17:05 -16.22793 -47.41082 36091 ft 465 kts 309°
2026-05-04 17:06 -16.15949 -47.48240 36079 ft 465 kts 309°
2026-05-04 17:07 -16.09855 -47.54622 36081 ft 468 kts 309°
2026-05-04 17:07 -16.04495 -47.60227 36078 ft 468 kts 309°
2026-05-04 17:08 -15.97615 -47.67413 36075 ft 467 kts 309°
2026-05-04 17:09 -15.93059 -47.72169 36072 ft 468 kts 309°
2026-05-04 17:09 -15.88463 -47.76965 36077 ft 469 kts 309°
2026-05-04 17:10 -15.83857 -47.81768 36208 ft 469 kts 309°
2026-05-04 17:10 -15.76948 -47.88964 36203 ft 469 kts 309°
2026-05-04 17:11 -15.72343 -47.93752 36180 ft 469 kts 310°
2026-05-04 17:12 -15.65420 -48.00947 36134 ft 470 kts 310°
2026-05-04 17:13 -15.53873 -48.12935 36054 ft 470 kts 310°
2026-05-04 17:14 -15.44528 -48.22437 36045 ft 472 kts 312°
2026-05-04 17:15 -15.37229 -48.29300 36045 ft 472 kts 313°
2026-05-04 17:16 -15.27578 -48.38462 36031 ft 472 kts 312°
2026-05-04 17:17 -15.17917 -48.47679 36027 ft 472 kts 312°
2026-05-04 17:18 -15.08258 -48.56878 36018 ft 471 kts 312°
2026-05-04 17:19 -14.98591 -48.66054 36012 ft 472 kts 313°
2026-05-04 17:20 -14.88843 -48.75159 36006 ft 472 kts 313°
2026-05-04 17:20 -14.81558 -48.81970 36011 ft 472 kts 313°
2026-05-04 17:21 -14.71812 -48.91081 35997 ft 472 kts 313°
2026-05-04 17:22 -14.66935 -48.95634 36002 ft 472 kts 313°
2026-05-04 17:23 -14.57168 -49.04746 35996 ft 473 kts 313°
2026-05-04 17:24 -14.49837 -49.11579 35990 ft 473 kts 313°
2026-05-04 17:25 -14.40089 -49.20651 35980 ft 473 kts 313°
2026-05-04 17:26 -14.30304 -49.29751 35977 ft 473 kts 313°
2026-05-04 17:27 -14.18068 -49.41110 35966 ft 474 kts 313°
2026-05-04 17:28 -14.08264 -49.50201 35961 ft 474 kts 313°
2026-05-04 17:29 -14.01768 -49.57643 35957 ft 462 kts 296°
2026-05-04 17:29 -13.97118 -49.66302 35949 ft 460 kts 293°
2026-05-04 17:31 -13.89650 -49.80927 35953 ft 462 kts 293°
2026-05-04 17:32 -13.82104 -49.95515 35949 ft 462 kts 294°
2026-05-04 17:33 -13.76053 -50.07194 35947 ft 463 kts 294°
2026-05-04 17:34 -13.69994 -50.18873 35944 ft 464 kts 294°
2026-05-04 17:35 -13.62381 -50.33524 35939 ft 464 kts 294°
2026-05-04 17:36 -13.59336 -50.39377 35938 ft 464 kts 294°
2026-05-04 17:36 -13.56289 -50.45230 35937 ft 465 kts 294°
2026-05-04 17:37 -13.53230 -50.51102 35935 ft 467 kts 294°
2026-05-04 17:37 -13.50163 -50.56985 35935 ft 467 kts 294°
2026-05-04 17:38 -13.47613 -50.61871 35932 ft 467 kts 294°
2026-05-04 17:38 -13.44044 -50.68707 35930 ft 467 kts 294°
2026-05-04 17:39 -13.39438 -50.77523 35930 ft 467 kts 294°
2026-05-04 17:39 -13.36860 -50.82452 35922 ft 467 kts 294°
2026-05-04 17:40 -13.33798 -50.88304 35929 ft 469 kts 294°
2026-05-04 17:40 -13.30704 -50.94212 35930 ft 470 kts 294°
2026-05-04 17:41 -13.27607 -51.00121 35930 ft 470 kts 294°
2026-05-04 17:41 -13.24506 -51.06033 35930 ft 470 kts 295°
2026-05-04 17:42 -13.21406 -51.11942 35924 ft 470 kts 295°
2026-05-04 17:42 -13.18302 -51.17853 35928 ft 470 kts 295°
2026-05-04 17:43 -13.15201 -51.23754 35926 ft 470 kts 295°
2026-05-04 17:43 -13.12092 -51.29667 35927 ft 471 kts 295°
2026-05-04 17:44 -13.08977 -51.35585 35922 ft 471 kts 295°
2026-05-04 17:44 -13.05861 -51.41503 35925 ft 472 kts 295°
2026-05-04 17:45 -13.02740 -51.47426 35927 ft 472 kts 295°
2026-05-04 17:45 -12.99641 -51.53302 35927 ft 472 kts 295°
2026-05-04 17:46 -12.96518 -51.59220 35927 ft 472 kts 295°
2026-05-04 17:46 -12.93398 -51.65131 35926 ft 472 kts 295°
2026-05-04 17:47 -12.90267 -51.71058 35931 ft 472 kts 295°
2026-05-04 17:47 -12.87136 -51.76980 35930 ft 473 kts 295°
2026-05-04 17:48 -12.84004 -51.82895 35927 ft 473 kts 295°
2026-05-04 17:48 -12.80865 -51.88821 35927 ft 473 kts 295°
2026-05-04 17:49 -12.77727 -51.94742 35930 ft 473 kts 295°
2026-05-04 17:49 -12.74589 -52.00660 35931 ft 473 kts 295°
2026-05-04 17:50 -12.71468 -52.06542 35928 ft 474 kts 296°
2026-05-04 17:50 -12.68315 -52.12479 35924 ft 475 kts 296°
2026-05-04 17:51 -12.65157 -52.18423 35928 ft 475 kts 296°
2026-05-04 17:51 -12.61997 -52.24366 35927 ft 475 kts 296°
2026-05-04 17:52 -12.58837 -52.30306 35925 ft 475 kts 296°
2026-05-04 17:52 -12.55677 -52.36241 35925 ft 475 kts 296°
2026-05-04 17:53 -12.52512 -52.42182 35922 ft 475 kts 296°
2026-05-04 17:53 -12.49347 -52.48119 35921 ft 476 kts 296°
2026-05-04 17:54 -12.46173 -52.54069 35923 ft 477 kts 296°
2026-05-04 17:54 -12.42992 -52.60028 35923 ft 477 kts 296°
2026-05-04 17:55 -12.39834 -52.65939 35923 ft 477 kts 296°
2026-05-04 17:55 -12.36650 -52.71897 35918 ft 477 kts 296°
2026-05-04 17:56 -12.33462 -52.77856 35916 ft 477 kts 296°
2026-05-04 17:56 -12.30278 -52.83806 35917 ft 477 kts 296°
2026-05-04 17:57 -12.27088 -52.89762 35914 ft 477 kts 296°
2026-05-04 17:57 -12.23900 -52.95711 35917 ft 477 kts 296°
2026-05-04 17:58 -12.20684 -53.01654 35911 ft 478 kts 300°
2026-05-04 17:58 -12.16847 -53.07220 35909 ft 479 kts 304°
2026-05-04 17:59 -12.12821 -53.12663 35908 ft 480 kts 305°
2026-05-04 18:00 -12.06736 -53.20786 35905 ft 480 kts 305°
2026-05-04 18:00 -12.02687 -53.26209 35913 ft 480 kts 305°
2026-05-04 18:01 -11.98641 -53.31634 35910 ft 480 kts 305°
2026-05-04 18:01 -11.94597 -53.37056 35911 ft 480 kts 305°
2026-05-04 18:02 -11.88549 -53.45156 35911 ft 480 kts 305°
2026-05-04 18:02 -11.84503 -53.50572 35916 ft 480 kts 305°
2026-05-04 18:03 -11.80451 -53.55993 35909 ft 480 kts 306°
2026-05-04 18:03 -11.76400 -53.61411 35911 ft 480 kts 306°
2026-05-04 18:04 -11.72346 -53.66827 35917 ft 480 kts 306°
2026-05-04 18:05 -11.66262 -53.74951 35917 ft 480 kts 306°
2026-05-04 18:05 -11.62210 -53.80358 35920 ft 479 kts 306°
2026-05-04 18:06 -11.56135 -53.88462 35921 ft 480 kts 306°
2026-05-04 18:06 -11.52077 -53.93871 35925 ft 480 kts 306°
2026-05-04 18:07 -11.48014 -53.99281 35921 ft 480 kts 306°
2026-05-04 18:07 -11.43956 -54.04685 35923 ft 480 kts 306°
2026-05-04 18:08 -11.39895 -54.10088 35922 ft 480 kts 306°
2026-05-04 18:08 -11.35861 -54.15453 35923 ft 480 kts 306°
2026-05-04 18:09 -11.27733 -54.26255 35925 ft 480 kts 306°
2026-05-04 18:10 -11.23670 -54.31646 35922 ft 478 kts 306°
2026-05-04 18:10 -11.19626 -54.37016 35924 ft 478 kts 306°
2026-05-04 18:11 -11.15572 -54.42391 35916 ft 478 kts 306°
2026-05-04 18:11 -11.11525 -54.47762 35923 ft 479 kts 306°
2026-05-04 18:12 -11.07461 -54.53145 35921 ft 479 kts 307°
2026-05-04 18:12 -11.03426 -54.58489 35921 ft 480 kts 307°
2026-05-04 18:13 -10.99334 -54.63904 35922 ft 479 kts 307°